This is the latest recevied weather packets stored in our database for station/object KG7MRB. If no packets are shown the sender has not sent any weather packets the latest 10 day(s).
| Time | Temp. | Humidity | Pressure | Rain* | Wind** | Luminosity | Snow |
|---|---|---|---|---|---|---|---|
| 1777766722 | 26.11° C | 46% | 1032.2 hPa | 0 mm | - | 332 W/m² | - |
| 1777766419 | 25.56° C | 47% | 1032.3 hPa | 0 mm | - | 362 W/m² | - |
| 1777766115 | 26.11° C | 46% | 1032.3 hPa | 0 mm | - | 376 W/m² | - |
| 1777765813 | 26.11° C | 46% | 1032.2 hPa | 0 mm | - | 386 W/m² | - |
| 1777765509 | 26.11° C | 47% | 1032.1 hPa | 0 mm | - | 399 W/m² | - |
| 1777765207 | 26.67° C | 46% | 1032.2 hPa | 0 mm | - | 410 W/m² | - |
| 1777764907 | 26.67° C | 45% | 1032.5 hPa | 0 mm | - | 421 W/m² | - |
| 1777764604 | 26.11° C | 46% | 1032.6 hPa | 0 mm | - | 437 W/m² | - |
| 1777764300 | 27.22° C | 43% | 1032.4 hPa | 0 mm | - | 446 W/m² | - |
| 1777763997 | 26.67° C | 45% | 1032.5 hPa | 0 mm | - | 460 W/m² | - |
| 1777763694 | 26.67° C | 43% | 1032.3 hPa | 0 mm | - | 468 W/m² | - |
| 1777763393 | 26.11° C | 43% | 1032.5 hPa | 0 mm | - | 480 W/m² | - |
| 1777763090 | 27.22° C | 44% | 1032.5 hPa | 0 mm | - | 489 W/m² | - |
| 1777762788 | 26.67° C | 42% | 1033 hPa | 0 mm | - | 499 W/m² | - |
| 1777762484 | 26.67° C | 44% | 1032.7 hPa | 0 mm | - | 506 W/m² | - |
| 1777762181 | 26.67° C | 43% | 1032.7 hPa | 0 mm | - | 520 W/m² | - |
| 1777761877 | 27.78° C | 41% | 1032.8 hPa | 0 mm | - | 531 W/m² | - |
| 1777761574 | 26.11° C | 41% | 1032.8 hPa | 0 mm | - | 537 W/m² | - |
| 1777761272 | 27.22° C | 42% | 1032.8 hPa | 0 mm | - | 549 W/m² | - |
| 1777760970 | 26.67° C | 42% | 1032.8 hPa | 0 mm | - | 558 W/m² | - |
| 1777760667 | 26.67° C | 37% | 1032.8 hPa | 0 mm | - | 565 W/m² | - |
| 1777760362 | 26.67° C | 38% | 1033 hPa | 0 mm | - | 576 W/m² | - |
| 1777760059 | 26.67° C | 39% | 1033.1 hPa | 0 mm | - | 584 W/m² | - |
| 1777759757 | 26.67° C | 39% | 1033.2 hPa | 0 mm | - | 593 W/m² | - |
| 1777759452 | 26.67° C | 38% | 1033.2 hPa | 0 mm | - | 601 W/m² | - |
* Rain latest hour (hover to see other rain measurements)
** Current wind speed in m/s (hover to see current wind gust speed)